Location: Unspecified
(0.0000°N, 0.0000°E)
Time: 04:38:02
(UTC+00:00)

Explorer 7 - Pass Details

Date: 08 October 2020
Orbit: 484 x 678 km, 50.3° (Epoch: 28 October)

Event Time Altitude Azimuth Distance (km) Brightness Sun altitude
Rises 18:47:08 0° 238° (WSW) 2,545 11.5 -14.9°
Reaches altitude 10° 18:49:34 10° 253° (WSW) 1,675 10.6 -15.5°
Maximum altitude 18:52:39 24° 308° (NW) 1,074 8.8 -16.2°
Drops below altitude 10° 18:55:49 10° 3° (N) 1,724 9.3 -17.0°
Enters shadow 18:57:14 - 12° (NNE) 2,218 9.7 -17.4°
Sets 18:58:22 0° 17° (NNE) 2,640 - -17.6°
